owner,sensor,date,latitude,longitude,relative_humidity,qcFlag 
DISL,ioos:station:DISL:PPTA:1,2012-05-01T00:00:00Z,30.2791,-87.5561,72.18,1111122 
DISL,ioos:station:DISL:PPTA:1,2012-05-01T00:30:00Z,30.2791,-87.5561,74.55,1111122 
DISL,ioos:station:DISL:PPTA:1,2012-05-01T01:00:00Z,30.2791,-87.5561,76.77,1111122 
DISL,ioos:station:DISL:PPTA:1,2012-05-01T01:30:00Z,30.2791,-87.5561,78.01,1111122 
DISL,ioos:station:DISL:PPTA:1,2012-05-01T02:00:00Z,30.2791,-87.5561,79.8,1111122 
DISL,ioos:station:DISL:PPTA:1,2012-05-01T02:30:00Z,30.2791,-87.5561,80.5,1111122 
DISL,ioos:station:DISL:PPTA:1,2012-05-01T03:00:00Z,30.2791,-87.5561,82.9,1111122 
DISL,ioos:station:DISL:PPTA:1,2012-05-01T03:30:00Z,30.2791,-87.5561,83.4,1111122 
DISL,ioos:station:DISL:PPTA:1,2012-05-01T04:00:00Z,30.2791,-87.5561,82.8,1111122 
DISL,ioos:station:DISL:PPTA:1,2012-05-01T04:30:00Z,30.2791,-87.5561,84.1,1111122 
DISL,ioos:station:DISL:PPTA:1,2012-05-01T05:00:00Z,30.2791,-87.5561,88.2,1111122 
DISL,ioos:station:DISL:PPTA:1,2012-05-01T05:30:00Z,30.2791,-87.5561,89.2,1111122 
DISL,ioos:station:DISL:PPTA:1,2012-05-01T06:00:00Z,30.2791,-87.5561,90.2,1111122 
DISL,ioos:station:DISL:PPTA:1,2012-05-01T06:30:00Z,30.2791,-87.5561,90.9,1111122 
DISL,ioos:station:DISL:PPTA:1,2012-05-01T07:00:00Z,30.2791,-87.5561,91.8,1111122 
DISL,ioos:station:DISL:PPTA:1,2012-05-01T07:30:00Z,30.2791,-87.5561,92.0,1111122 
DISL,ioos:station:DISL:PPTA:1,2012-05-01T08:00:00Z,30.2791,-87.5561,92.6,1111122 
DISL,ioos:station:DISL:PPTA:1,2012-05-01T08:30:00Z,30.2791,-87.5561,92.9,1111122 
DISL,ioos:station:DISL:PPTA:1,2012-05-01T09:00:00Z,30.2791,-87.5561,92.6,1111122 
DISL,ioos:station:DISL:PPTA:1,2012-05-01T09:30:00Z,30.2791,-87.5561,91.9,1111122 
DISL,ioos:station:DISL:PPTA:1,2012-05-01T10:00:00Z,30.2791,-87.5561,91.6,1111122 
DISL,ioos:station:DISL:PPTA:1,2012-05-01T10:30:00Z,30.2791,-87.5561,91.4,1111122 
DISL,ioos:station:DISL:PPTA:1,2012-05-01T11:00:00Z,30.2791,-87.5561,91.6,1111122 
DISL,ioos:station:DISL:PPTA:1,2012-05-01T11:30:00Z,30.2791,-87.5561,87.8,1111122 
DISL,ioos:station:DISL:PPTA:1,2012-05-01T12:00:00Z,30.2791,-87.5561,77.17,1111122 
DISL,ioos:station:DISL:PPTA:1,2012-05-01T12:30:00Z,30.2791,-87.5561,76.51,1111122 
DISL,ioos:station:DISL:PPTA:1,2012-05-01T13:00:00Z,30.2791,-87.5561,78.81,1111122 
DISL,ioos:station:DISL:PPTA:1,2012-05-01T13:30:00Z,30.2791,-87.5561,81.3,1111122 
DISL,ioos:station:DISL:PPTA:1,2012-05-01T14:00:00Z,30.2791,-87.5561,82.0,1111122 
DISL,ioos:station:DISL:PPTA:1,2012-05-01T14:30:00Z,30.2791,-87.5561,79.91,1111122 
DISL,ioos:station:DISL:PPTA:1,2012-05-01T15:00:00Z,30.2791,-87.5561,79.13,1111122 
DISL,ioos:station:DISL:PPTA:1,2012-05-01T15:30:00Z,30.2791,-87.5561,81.2,1111122 
DISL,ioos:station:DISL:PPTA:1,2012-05-01T16:00:00Z,30.2791,-87.5561,79.13,1111122 
DISL,ioos:station:DISL:PPTA:1,2012-05-01T16:30:00Z,30.2791,-87.5561,75.92,1111122 
DISL,ioos:station:DISL:PPTA:1,2012-05-01T17:00:00Z,30.2791,-87.5561,75.81,1111122 
DISL,ioos:station:DISL:PPTA:1,2012-05-01T17:30:00Z,30.2791,-87.5561,75.02,1111122 
DISL,ioos:station:DISL:PPTA:1,2012-05-01T18:00:00Z,30.2791,-87.5561,76.52,1111122 
DISL,ioos:station:DISL:PPTA:1,2012-05-01T18:30:00Z,30.2791,-87.5561,77.07,1111122 
DISL,ioos:station:DISL:PPTA:1,2012-05-01T19:00:00Z,30.2791,-87.5561,75.27,1111122 
DISL,ioos:station:DISL:PPTA:1,2012-05-01T19:30:00Z,30.2791,-87.5561,73.33,1111122 
DISL,ioos:station:DISL:PPTA:1,2012-05-01T20:00:00Z,30.2791,-87.5561,73.57,1111122 
DISL,ioos:station:DISL:PPTA:1,2012-05-01T20:30:00Z,30.2791,-87.5561,74.05,1111122 
DISL,ioos:station:DISL:PPTA:1,2012-05-01T21:00:00Z,30.2791,-87.5561,73.94,1111122 
DISL,ioos:station:DISL:PPTA:1,2012-05-01T21:30:00Z,30.2791,-87.5561,72.21,1111122 
DISL,ioos:station:DISL:PPTA:1,2012-05-01T22:00:00Z,30.2791,-87.5561,73.48,1111122 
DISL,ioos:station:DISL:PPTA:1,2012-05-01T22:30:00Z,30.2791,-87.5561,74.48,1111122 
DISL,ioos:station:DISL:PPTA:1,2012-05-01T23:00:00Z,30.2791,-87.5561,75.67,1111122 
DISL,ioos:station:DISL:PPTA:1,2012-05-01T23:30:00Z,30.2791,-87.5561,78.68,1111122 
DISL,ioos:station:DISL:PPTA:1,2012-05-02T00:00:00Z,30.2791,-87.5561,82.1,1111122 
DISL,ioos:station:DISL:PPTA:1,2012-05-02T00:30:00Z,30.2791,-87.5561,83.4,1111122 
DISL,ioos:station:DISL:PPTA:1,2012-05-02T01:00:00Z,30.2791,-87.5561,83.5,1111122 
DISL,ioos:station:DISL:PPTA:1,2012-05-02T01:30:00Z,30.2791,-87.5561,83.4,1111122 
DISL,ioos:station:DISL:PPTA:1,2012-05-02T02:00:00Z,30.2791,-87.5561,82.9,1111122 
DISL,ioos:station:DISL:PPTA:1,2012-05-02T02:30:00Z,30.2791,-87.5561,81.5,1111122 
DISL,ioos:station:DISL:PPTA:1,2012-05-02T03:00:00Z,30.2791,-87.5561,79.73,1111122 
DISL,ioos:station:DISL:PPTA:1,2012-05-02T03:30:00Z,30.2791,-87.5561,78.91,1111122 
DISL,ioos:station:DISL:PPTA:1,2012-05-02T04:00:00Z,30.2791,-87.5561,77.95,1111122 
DISL,ioos:station:DISL:PPTA:1,2012-05-02T04:30:00Z,30.2791,-87.5561,77.17,1111122 
DISL,ioos:station:DISL:PPTA:1,2012-05-02T05:00:00Z,30.2791,-87.5561,76.89,1111122 
DISL,ioos:station:DISL:PPTA:1,2012-05-02T05:30:00Z,30.2791,-87.5561,76.76,1111122 
DISL,ioos:station:DISL:PPTA:1,2012-05-02T06:00:00Z,30.2791,-87.5561,77.3,1111122 
DISL,ioos:station:DISL:PPTA:1,2012-05-02T06:30:00Z,30.2791,-87.5561,76.76,1111122 
DISL,ioos:station:DISL:PPTA:1,2012-05-02T07:00:00Z,30.2791,-87.5561,75.09,1111122 
DISL,ioos:station:DISL:PPTA:1,2012-05-02T07:30:00Z,30.2791,-87.5561,79.15,1111122 
DISL,ioos:station:DISL:PPTA:1,2012-05-02T08:00:00Z,30.2791,-87.5561,77.95,1111122 
DISL,ioos:station:DISL:PPTA:1,2012-05-02T08:30:00Z,30.2791,-87.5561,75.84,1111122 
DISL,ioos:station:DISL:PPTA:1,2012-05-02T09:00:00Z,30.2791,-87.5561,76.66,1111122 
DISL,ioos:station:DISL:PPTA:1,2012-05-02T09:30:00Z,30.2791,-87.5561,78.46,1111122 
DISL,ioos:station:DISL:PPTA:1,2012-05-02T10:00:00Z,30.2791,-87.5561,80.7,1111122 
DISL,ioos:station:DISL:PPTA:1,2012-05-02T10:30:00Z,30.2791,-87.5561,82.5,1111122 
DISL,ioos:station:DISL:PPTA:1,2012-05-02T11:00:00Z,30.2791,-87.5561,85.0,1111122 
DISL,ioos:station:DISL:PPTA:1,2012-05-02T11:30:00Z,30.2791,-87.5561,85.8,1111122 
DISL,ioos:station:DISL:PPTA:1,2012-05-02T12:00:00Z,30.2791,-87.5561,85.9,1111122 
DISL,ioos:station:DISL:PPTA:1,2012-05-02T12:30:00Z,30.2791,-87.5561,85.7,1111122 
DISL,ioos:station:DISL:PPTA:1,2012-05-02T13:00:00Z,30.2791,-87.5561,85.9,1111122 
DISL,ioos:station:DISL:PPTA:1,2012-05-02T13:30:00Z,30.2791,-87.5561,83.0,1111122 
DISL,ioos:station:DISL:PPTA:1,2012-05-02T14:00:00Z,30.2791,-87.5561,85.0,1111122 
DISL,ioos:station:DISL:PPTA:1,2012-05-02T14:30:00Z,30.2791,-87.5561,83.7,1111122 
DISL,ioos:station:DISL:PPTA:1,2012-05-02T15:00:00Z,30.2791,-87.5561,81.4,1111122 
DISL,ioos:station:DISL:PPTA:1,2012-05-02T15:30:00Z,30.2791,-87.5561,82.0,1111122 
DISL,ioos:station:DISL:PPTA:1,2012-05-02T16:00:00Z,30.2791,-87.5561,83.6,1111122 
DISL,ioos:station:DISL:PPTA:1,2012-05-02T16:30:00Z,30.2791,-87.5561,84.4,1111122 
DISL,ioos:station:DISL:PPTA:1,2012-05-02T17:00:00Z,30.2791,-87.5561,84.3,1111122 
DISL,ioos:station:DISL:PPTA:1,2012-05-02T17:30:00Z,30.2791,-87.5561,85.7,1111122 
DISL,ioos:station:DISL:PPTA:1,2012-05-02T18:00:00Z,30.2791,-87.5561,85.1,1111122 
DISL,ioos:station:DISL:PPTA:1,2012-05-02T18:30:00Z,30.2791,-87.5561,88.4,1111122 
DISL,ioos:station:DISL:PPTA:1,2012-05-02T19:00:00Z,30.2791,-87.5561,88.2,1111122 
DISL,ioos:station:DISL:PPTA:1,2012-05-02T19:30:00Z,30.2791,-87.5561,89.0,1111122 
DISL,ioos:station:DISL:PPTA:1,2012-05-02T20:00:00Z,30.2791,-87.5561,88.5,1111122 
DISL,ioos:station:DISL:PPTA:1,2012-05-02T20:30:00Z,30.2791,-87.5561,89.2,1111122 
DISL,ioos:station:DISL:PPTA:1,2012-05-02T21:00:00Z,30.2791,-87.5561,90.6,1111122 
DISL,ioos:station:DISL:PPTA:1,2012-05-02T21:30:00Z,30.2791,-87.5561,91.3,1111122 
DISL,ioos:station:DISL:PPTA:1,2012-05-02T22:00:00Z,30.2791,-87.5561,91.0,1111122 
DISL,ioos:station:DISL:PPTA:1,2012-05-02T22:30:00Z,30.2791,-87.5561,91.8,1111122 
DISL,ioos:station:DISL:PPTA:1,2012-05-02T23:00:00Z,30.2791,-87.5561,91.7,1111122 
DISL,ioos:station:DISL:PPTA:1,2012-05-02T23:30:00Z,30.2791,-87.5561,91.5,1111122 
DISL,ioos:station:DISL:PPTA:1,2012-05-03T00:00:00Z,30.2791,-87.5561,91.5,1111122 
DISL,ioos:station:DISL:PPTA:1,2012-05-03T00:30:00Z,30.2791,-87.5561,91.2,1111122 
DISL,ioos:station:DISL:PPTA:1,2012-05-03T01:00:00Z,30.2791,-87.5561,90.9,1111122 
DISL,ioos:station:DISL:PPTA:1,2012-05-03T01:30:00Z,30.2791,-87.5561,89.9,1111122 
DISL,ioos:station:DISL:PPTA:1,2012-05-03T02:00:00Z,30.2791,-87.5561,90.5,1111122 
DISL,ioos:station:DISL:PPTA:1,2012-05-03T02:30:00Z,30.2791,-87.5561,91.0,1111122 
DISL,ioos:station:DISL:PPTA:1,2012-05-03T03:00:00Z,30.2791,-87.5561,91.0,1111122 
DISL,ioos:station:DISL:PPTA:1,2012-05-03T03:30:00Z,30.2791,-87.5561,90.9,1111122 
DISL,ioos:station:DISL:PPTA:1,2012-05-03T04:00:00Z,30.2791,-87.5561,91.2,1111122 
DISL,ioos:station:DISL:PPTA:1,2012-05-03T04:30:00Z,30.2791,-87.5561,90.7,1111122 
DISL,ioos:station:DISL:PPTA:1,2012-05-03T05:00:00Z,30.2791,-87.5561,90.6,1111122 
DISL,ioos:station:DISL:PPTA:1,2012-05-03T05:30:00Z,30.2791,-87.5561,92.7,1111122 
DISL,ioos:station:DISL:PPTA:1,2012-05-03T06:00:00Z,30.2791,-87.5561,93.5,1111122 
DISL,ioos:station:DISL:PPTA:1,2012-05-03T06:30:00Z,30.2791,-87.5561,93.9,1111122 
DISL,ioos:station:DISL:PPTA:1,2012-05-03T07:00:00Z,30.2791,-87.5561,94.2,1111122 
DISL,ioos:station:DISL:PPTA:1,2012-05-03T07:30:00Z,30.2791,-87.5561,93.7,1111122 
DISL,ioos:station:DISL:PPTA:1,2012-05-03T08:00:00Z,30.2791,-87.5561,93.1,1111122 
DISL,ioos:station:DISL:PPTA:1,2012-05-03T08:30:00Z,30.2791,-87.5561,92.9,1111122 
DISL,ioos:station:DISL:PPTA:1,2012-05-03T09:00:00Z,30.2791,-87.5561,92.6,1111122 
DISL,ioos:station:DISL:PPTA:1,2012-05-03T09:30:00Z,30.2791,-87.5561,92.7,1111122 
DISL,ioos:station:DISL:PPTA:1,2012-05-03T10:00:00Z,30.2791,-87.5561,91.4,1111122 
DISL,ioos:station:DISL:PPTA:1,2012-05-03T10:30:00Z,30.2791,-87.5561,90.2,1111122 
DISL,ioos:station:DISL:PPTA:1,2012-05-03T11:00:00Z,30.2791,-87.5561,88.4,1111122 
DISL,ioos:station:DISL:PPTA:1,2012-05-03T11:30:00Z,30.2791,-87.5561,87.9,1111122 
DISL,ioos:station:DISL:PPTA:1,2012-05-03T12:00:00Z,30.2791,-87.5561,87.1,1111122 
DISL,ioos:station:DISL:PPTA:1,2012-05-03T12:30:00Z,30.2791,-87.5561,88.7,1111122 
DISL,ioos:station:DISL:PPTA:1,2012-05-03T13:00:00Z,30.2791,-87.5561,87.1,1111122 
DISL,ioos:station:DISL:PPTA:1,2012-05-03T13:30:00Z,30.2791,-87.5561,88.6,1111122 
DISL,ioos:station:DISL:PPTA:1,2012-05-03T14:00:00Z,30.2791,-87.5561,89.6,1111122 
DISL,ioos:station:DISL:PPTA:1,2012-05-03T14:30:00Z,30.2791,-87.5561,87.4,1111122 
DISL,ioos:station:DISL:PPTA:1,2012-05-03T15:00:00Z,30.2791,-87.5561,86.6,1111122 
DISL,ioos:station:DISL:PPTA:1,2012-05-03T15:30:00Z,30.2791,-87.5561,85.8,1111122 
DISL,ioos:station:DISL:PPTA:1,2012-05-03T16:00:00Z,30.2791,-87.5561,83.3,1111122 
DISL,ioos:station:DISL:PPTA:1,2012-05-03T16:30:00Z,30.2791,-87.5561,83.3,1111122 
DISL,ioos:station:DISL:PPTA:1,2012-05-03T17:00:00Z,30.2791,-87.5561,82.4,1111122 
DISL,ioos:station:DISL:PPTA:1,2012-05-03T17:30:00Z,30.2791,-87.5561,81.0,1111122 
DISL,ioos:station:DISL:PPTA:1,2012-05-03T18:00:00Z,30.2791,-87.5561,80.4,1111122 
DISL,ioos:station:DISL:PPTA:1,2012-05-03T18:30:00Z,30.2791,-87.5561,81.1,1111122 
DISL,ioos:station:DISL:PPTA:1,2012-05-03T19:00:00Z,30.2791,-87.5561,80.7,1111122 
DISL,ioos:station:DISL:PPTA:1,2012-05-03T19:30:00Z,30.2791,-87.5561,81.5,1111122 
DISL,ioos:station:DISL:PPTA:1,2012-05-03T20:00:00Z,30.2791,-87.5561,83.4,1111122 
DISL,ioos:station:DISL:PPTA:1,2012-05-03T20:30:00Z,30.2791,-87.5561,83.0,1111122 
DISL,ioos:station:DISL:PPTA:1,2012-05-03T21:00:00Z,30.2791,-87.5561,83.3,1111122 
DISL,ioos:station:DISL:PPTA:1,2012-05-03T21:30:00Z,30.2791,-87.5561,82.7,1111122 
DISL,ioos:station:DISL:PPTA:1,2012-05-03T22:00:00Z,30.2791,-87.5561,83.3,1111122 
DISL,ioos:station:DISL:PPTA:1,2012-05-03T22:30:00Z,30.2791,-87.5561,84.7,1111122 
DISL,ioos:station:DISL:PPTA:1,2012-05-03T23:00:00Z,30.2791,-87.5561,84.2,1111122 
DISL,ioos:station:DISL:PPTA:1,2012-05-03T23:30:00Z,30.2791,-87.5561,85.4,1111122 
DISL,ioos:station:DISL:PPTA:1,2012-05-04T00:00:00Z,30.2791,-87.5561,86.3,1111122 
DISL,ioos:station:DISL:PPTA:1,2012-05-04T00:30:00Z,30.2791,-87.5561,86.6,1111122 
DISL,ioos:station:DISL:PPTA:1,2012-05-04T01:00:00Z,30.2791,-87.5561,87.6,1111122 
DISL,ioos:station:DISL:PPTA:1,2012-05-04T01:30:00Z,30.2791,-87.5561,87.0,1111122 
DISL,ioos:station:DISL:PPTA:1,2012-05-04T02:00:00Z,30.2791,-87.5561,86.7,1111122 
DISL,ioos:station:DISL:PPTA:1,2012-05-04T02:30:00Z,30.2791,-87.5561,86.7,1111122 
DISL,ioos:station:DISL:PPTA:1,2012-05-04T03:00:00Z,30.2791,-87.5561,87.0,1111122 
DISL,ioos:station:DISL:PPTA:1,2012-05-04T03:30:00Z,30.2791,-87.5561,83.8,1111122 
DISL,ioos:station:DISL:PPTA:1,2012-05-04T04:00:00Z,30.2791,-87.5561,84.0,1111122 
DISL,ioos:station:DISL:PPTA:1,2012-05-04T04:30:00Z,30.2791,-87.5561,86.1,1111122 
DISL,ioos:station:DISL:PPTA:1,2012-05-04T05:00:00Z,30.2791,-87.5561,86.3,1111122 
DISL,ioos:station:DISL:PPTA:1,2012-05-04T05:30:00Z,30.2791,-87.5561,87.3,1111122 
DISL,ioos:station:DISL:PPTA:1,2012-05-04T06:00:00Z,30.2791,-87.5561,88.1,1111122 
DISL,ioos:station:DISL:PPTA:1,2012-05-04T06:30:00Z,30.2791,-87.5561,88.2,1111122 
DISL,ioos:station:DISL:PPTA:1,2012-05-04T07:00:00Z,30.2791,-87.5561,89.1,1111122 
DISL,ioos:station:DISL:PPTA:1,2012-05-04T07:30:00Z,30.2791,-87.5561,89.4,1111122 
DISL,ioos:station:DISL:PPTA:1,2012-05-04T08:00:00Z,30.2791,-87.5561,90.2,1111122 
DISL,ioos:station:DISL:PPTA:1,2012-05-04T08:30:00Z,30.2791,-87.5561,90.6,1111122 
DISL,ioos:station:DISL:PPTA:1,2012-05-04T09:00:00Z,30.2791,-87.5561,90.7,1111122 
DISL,ioos:station:DISL:PPTA:1,2012-05-04T09:30:00Z,30.2791,-87.5561,90.6,1111122 
DISL,ioos:station:DISL:PPTA:1,2012-05-04T10:00:00Z,30.2791,-87.5561,90.9,1111122 
DISL,ioos:station:DISL:PPTA:1,2012-05-04T10:30:00Z,30.2791,-87.5561,91.1,1111122 
DISL,ioos:station:DISL:PPTA:1,2012-05-04T11:00:00Z,30.2791,-87.5561,90.6,1111122 
DISL,ioos:station:DISL:PPTA:1,2012-05-04T11:30:00Z,30.2791,-87.5561,88.4,1111122 
DISL,ioos:station:DISL:PPTA:1,2012-05-04T12:00:00Z,30.2791,-87.5561,87.5,1111122 
DISL,ioos:station:DISL:PPTA:1,2012-05-04T12:30:00Z,30.2791,-87.5561,86.6,1111122 
DISL,ioos:station:DISL:PPTA:1,2012-05-04T13:00:00Z,30.2791,-87.5561,90.8,1111122 
DISL,ioos:station:DISL:PPTA:1,2012-05-04T14:00:00Z,30.2791,-87.5561,91.8,1111122 
DISL,ioos:station:DISL:PPTA:1,2012-05-04T14:30:00Z,30.2791,-87.5561,90.2,1111122 
DISL,ioos:station:DISL:PPTA:1,2012-05-04T15:00:00Z,30.2791,-87.5561,86.0,1111122 
DISL,ioos:station:DISL:PPTA:1,2012-05-04T15:30:00Z,30.2791,-87.5561,83.7,1111122 
DISL,ioos:station:DISL:PPTA:1,2012-05-04T16:00:00Z,30.2791,-87.5561,83.5,1111122 
DISL,ioos:station:DISL:PPTA:1,2012-05-04T16:30:00Z,30.2791,-87.5561,84.3,1111122 
DISL,ioos:station:DISL:PPTA:1,2012-05-04T17:00:00Z,30.2791,-87.5561,84.0,1111122 
DISL,ioos:station:DISL:PPTA:1,2012-05-04T17:30:00Z,30.2791,-87.5561,85.5,1111122 
DISL,ioos:station:DISL:PPTA:1,2012-05-04T18:00:00Z,30.2791,-87.5561,86.1,1111122 
DISL,ioos:station:DISL:PPTA:1,2012-05-04T18:30:00Z,30.2791,-87.5561,84.0,1111122 
DISL,ioos:station:DISL:PPTA:1,2012-05-04T19:00:00Z,30.2791,-87.5561,84.8,1111122 
DISL,ioos:station:DISL:PPTA:1,2012-05-04T19:30:00Z,30.2791,-87.5561,83.5,1111122 
DISL,ioos:station:DISL:PPTA:1,2012-05-04T20:00:00Z,30.2791,-87.5561,84.1,1111122 
DISL,ioos:station:DISL:PPTA:1,2012-05-04T20:30:00Z,30.2791,-87.5561,85.2,1111122 
DISL,ioos:station:DISL:PPTA:1,2012-05-04T21:00:00Z,30.2791,-87.5561,78.92,1111122 
DISL,ioos:station:DISL:PPTA:1,2012-05-04T21:30:00Z,30.2791,-87.5561,79.39,1111122 
DISL,ioos:station:DISL:PPTA:1,2012-05-04T22:00:00Z,30.2791,-87.5561,82.5,1111122 
DISL,ioos:station:DISL:PPTA:1,2012-05-04T22:30:00Z,30.2791,-87.5561,79.18,1111122 
DISL,ioos:station:DISL:PPTA:1,2012-05-04T23:00:00Z,30.2791,-87.5561,80.6,1111122 
DISL,ioos:station:DISL:PPTA:1,2012-05-04T23:30:00Z,30.2791,-87.5561,80.8,1111122 
DISL,ioos:station:DISL:PPTA:1,2012-05-05T00:00:00Z,30.2791,-87.5561,84.8,1111122 
DISL,ioos:station:DISL:PPTA:1,2012-05-05T00:30:00Z,30.2791,-87.5561,86.7,1111122 
DISL,ioos:station:DISL:PPTA:1,2012-05-05T01:00:00Z,30.2791,-87.5561,87.9,1111122 
DISL,ioos:station:DISL:PPTA:1,2012-05-05T01:30:00Z,30.2791,-87.5561,88.5,1111122 
DISL,ioos:station:DISL:PPTA:1,2012-05-05T02:00:00Z,30.2791,-87.5561,88.6,1111122 
DISL,ioos:station:DISL:PPTA:1,2012-05-05T02:30:00Z,30.2791,-87.5561,88.9,1111122 
DISL,ioos:station:DISL:PPTA:1,2012-05-05T03:00:00Z,30.2791,-87.5561,88.8,1111122 
DISL,ioos:station:DISL:PPTA:1,2012-05-05T03:30:00Z,30.2791,-87.5561,88.8,1111122 
DISL,ioos:station:DISL:PPTA:1,2012-05-05T04:00:00Z,30.2791,-87.5561,88.9,1111122 
DISL,ioos:station:DISL:PPTA:1,2012-05-05T04:30:00Z,30.2791,-87.5561,89.7,1111122 
DISL,ioos:station:DISL:PPTA:1,2012-05-05T05:00:00Z,30.2791,-87.5561,90.0,1111122 
DISL,ioos:station:DISL:PPTA:1,2012-05-05T05:30:00Z,30.2791,-87.5561,90.5,1111122 
DISL,ioos:station:DISL:PPTA:1,2012-05-05T06:00:00Z,30.2791,-87.5561,89.8,1111122 
DISL,ioos:station:DISL:PPTA:1,2012-05-05T06:30:00Z,30.2791,-87.5561,88.9,1111122 
DISL,ioos:station:DISL:PPTA:1,2012-05-05T07:00:00Z,30.2791,-87.5561,88.4,1111122 
DISL,ioos:station:DISL:PPTA:1,2012-05-05T07:30:00Z,30.2791,-87.5561,87.9,1111122 
DISL,ioos:station:DISL:PPTA:1,2012-05-05T08:00:00Z,30.2791,-87.5561,87.3,1111122 
DISL,ioos:station:DISL:PPTA:1,2012-05-05T08:30:00Z,30.2791,-87.5561,86.5,1111122 
DISL,ioos:station:DISL:PPTA:1,2012-05-05T09:00:00Z,30.2791,-87.5561,87.0,1111122 
DISL,ioos:station:DISL:PPTA:1,2012-05-05T09:30:00Z,30.2791,-87.5561,87.7,1111122 
DISL,ioos:station:DISL:PPTA:1,2012-05-05T10:00:00Z,30.2791,-87.5561,88.1,1111122 
DISL,ioos:station:DISL:PPTA:1,2012-05-05T10:30:00Z,30.2791,-87.5561,88.4,1111122 
DISL,ioos:station:DISL:PPTA:1,2012-05-05T11:00:00Z,30.2791,-87.5561,88.8,1111122 
DISL,ioos:station:DISL:PPTA:1,2012-05-05T11:30:00Z,30.2791,-87.5561,90.9,1111122 
DISL,ioos:station:DISL:PPTA:1,2012-05-05T12:00:00Z,30.2791,-87.5561,92.3,1111122 
DISL,ioos:station:DISL:PPTA:1,2012-05-05T12:30:00Z,30.2791,-87.5561,92.3,1111122 
DISL,ioos:station:DISL:PPTA:1,2012-05-05T13:00:00Z,30.2791,-87.5561,93.3,1111122 
DISL,ioos:station:DISL:PPTA:1,2012-05-05T13:30:00Z,30.2791,-87.5561,92.8,1111122 
DISL,ioos:station:DISL:PPTA:1,2012-05-05T14:00:00Z,30.2791,-87.5561,90.5,1111122 
DISL,ioos:station:DISL:PPTA:1,2012-05-05T14:30:00Z,30.2791,-87.5561,86.6,1111122 
DISL,ioos:station:DISL:PPTA:1,2012-05-05T15:00:00Z,30.2791,-87.5561,84.7,1111122 
DISL,ioos:station:DISL:PPTA:1,2012-05-05T15:30:00Z,30.2791,-87.5561,82.2,1111122 
DISL,ioos:station:DISL:PPTA:1,2012-05-05T16:00:00Z,30.2791,-87.5561,82.3,1111122 
DISL,ioos:station:DISL:PPTA:1,2012-05-05T16:30:00Z,30.2791,-87.5561,80.6,1111122 
DISL,ioos:station:DISL:PPTA:1,2012-05-05T17:00:00Z,30.2791,-87.5561,78.31,1111122 
DISL,ioos:station:DISL:PPTA:1,2012-05-05T17:30:00Z,30.2791,-87.5561,76.73,1111122 
DISL,ioos:station:DISL:PPTA:1,2012-05-05T18:00:00Z,30.2791,-87.5561,78.49,1111122 
DISL,ioos:station:DISL:PPTA:1,2012-05-05T18:30:00Z,30.2791,-87.5561,76.0,1111122 
DISL,ioos:station:DISL:PPTA:1,2012-05-05T19:00:00Z,30.2791,-87.5561,72.76,1111122 
DISL,ioos:station:DISL:PPTA:1,2012-05-05T19:30:00Z,30.2791,-87.5561,71.56,1111122 
DISL,ioos:station:DISL:PPTA:1,2012-05-05T20:00:00Z,30.2791,-87.5561,72.28,1111122 
DISL,ioos:station:DISL:PPTA:1,2012-05-05T20:30:00Z,30.2791,-87.5561,71.12,1111122 
DISL,ioos:station:DISL:PPTA:1,2012-05-05T21:00:00Z,30.2791,-87.5561,73.14,1111122 
DISL,ioos:station:DISL:PPTA:1,2012-05-05T21:30:00Z,30.2791,-87.5561,75.81,1111122 
DISL,ioos:station:DISL:PPTA:1,2012-05-05T22:00:00Z,30.2791,-87.5561,75.58,1111122 
DISL,ioos:station:DISL:PPTA:1,2012-05-05T22:30:00Z,30.2791,-87.5561,75.75,1111122 
DISL,ioos:station:DISL:PPTA:1,2012-05-05T23:00:00Z,30.2791,-87.5561,79.84,1111122 
DISL,ioos:station:DISL:PPTA:1,2012-05-05T23:30:00Z,30.2791,-87.5561,78.45,1111122 
DISL,ioos:station:DISL:PPTA:1,2012-05-06T00:00:00Z,30.2791,-87.5561,82.5,1111122 
DISL,ioos:station:DISL:PPTA:1,2012-05-06T00:30:00Z,30.2791,-87.5561,82.1,1111122 
DISL,ioos:station:DISL:PPTA:1,2012-05-06T01:00:00Z,30.2791,-87.5561,81.6,1111122 
DISL,ioos:station:DISL:PPTA:1,2012-05-06T01:30:00Z,30.2791,-87.5561,82.5,1111122 
DISL,ioos:station:DISL:PPTA:1,2012-05-06T02:00:00Z,30.2791,-87.5561,82.6,1111122 
DISL,ioos:station:DISL:PPTA:1,2012-05-06T02:30:00Z,30.2791,-87.5561,82.6,1111122 
DISL,ioos:station:DISL:PPTA:1,2012-05-06T03:00:00Z,30.2791,-87.5561,83.3,1111122 
DISL,ioos:station:DISL:PPTA:1,2012-05-06T03:30:00Z,30.2791,-87.5561,84.8,1111122 
DISL,ioos:station:DISL:PPTA:1,2012-05-06T04:00:00Z,30.2791,-87.5561,84.9,1111122 
DISL,ioos:station:DISL:PPTA:1,2012-05-06T04:30:00Z,30.2791,-87.5561,84.4,1111122 
DISL,ioos:station:DISL:PPTA:1,2012-05-06T05:00:00Z,30.2791,-87.5561,84.8,1111122 
DISL,ioos:station:DISL:PPTA:1,2012-05-06T05:30:00Z,30.2791,-87.5561,84.0,1111122 
DISL,ioos:station:DISL:PPTA:1,2012-05-06T06:00:00Z,30.2791,-87.5561,83.5,1111122 
DISL,ioos:station:DISL:PPTA:1,2012-05-06T06:30:00Z,30.2791,-87.5561,85.0,1111122 
DISL,ioos:station:DISL:PPTA:1,2012-05-06T07:00:00Z,30.2791,-87.5561,84.2,1111122 
DISL,ioos:station:DISL:PPTA:1,2012-05-06T07:30:00Z,30.2791,-87.5561,85.1,1111122 
DISL,ioos:station:DISL:PPTA:1,2012-05-06T08:00:00Z,30.2791,-87.5561,85.9,1111122 
DISL,ioos:station:DISL:PPTA:1,2012-05-06T08:30:00Z,30.2791,-87.5561,88.5,1111122 
DISL,ioos:station:DISL:PPTA:1,2012-05-06T09:00:00Z,30.2791,-87.5561,91.4,1111122 
DISL,ioos:station:DISL:PPTA:1,2012-05-06T09:30:00Z,30.2791,-87.5561,92.9,1111122 
DISL,ioos:station:DISL:PPTA:1,2012-05-06T10:00:00Z,30.2791,-87.5561,93.0,1111122 
DISL,ioos:station:DISL:PPTA:1,2012-05-06T10:30:00Z,30.2791,-87.5561,93.4,1111122 
DISL,ioos:station:DISL:PPTA:1,2012-05-06T11:00:00Z,30.2791,-87.5561,93.6,1111122 
DISL,ioos:station:DISL:PPTA:1,2012-05-06T11:30:00Z,30.2791,-87.5561,93.5,1111122 
DISL,ioos:station:DISL:PPTA:1,2012-05-06T12:00:00Z,30.2791,-87.5561,92.9,1111122 
DISL,ioos:station:DISL:PPTA:1,2012-05-06T12:30:00Z,30.2791,-87.5561,91.6,1111122 
DISL,ioos:station:DISL:PPTA:1,2012-05-06T13:00:00Z,30.2791,-87.5561,89.4,1111122 
DISL,ioos:station:DISL:PPTA:1,2012-05-06T13:30:00Z,30.2791,-87.5561,85.7,1111122 
DISL,ioos:station:DISL:PPTA:1,2012-05-06T14:00:00Z,30.2791,-87.5561,80.4,1111122 
DISL,ioos:station:DISL:PPTA:1,2012-05-06T14:30:00Z,30.2791,-87.5561,78.16,1111122 
DISL,ioos:station:DISL:PPTA:1,2012-05-06T15:00:00Z,30.2791,-87.5561,73.04,1111122 
DISL,ioos:station:DISL:PPTA:1,2012-05-06T15:30:00Z,30.2791,-87.5561,76.14,1111122 
DISL,ioos:station:DISL:PPTA:1,2012-05-06T16:00:00Z,30.2791,-87.5561,74.2,1111122 
DISL,ioos:station:DISL:PPTA:1,2012-05-06T16:30:00Z,30.2791,-87.5561,74.81,1111122 
DISL,ioos:station:DISL:PPTA:1,2012-05-06T17:00:00Z,30.2791,-87.5561,73.68,1111122 
DISL,ioos:station:DISL:PPTA:1,2012-05-06T17:30:00Z,30.2791,-87.5561,73.03,1111122 
DISL,ioos:station:DISL:PPTA:1,2012-05-06T18:00:00Z,30.2791,-87.5561,73.31,1111122 
DISL,ioos:station:DISL:PPTA:1,2012-05-06T18:30:00Z,30.2791,-87.5561,71.51,1111122 
DISL,ioos:station:DISL:PPTA:1,2012-05-06T19:00:00Z,30.2791,-87.5561,70.38,1111122 
DISL,ioos:station:DISL:PPTA:1,2012-05-06T19:30:00Z,30.2791,-87.5561,71.03,1111122 
DISL,ioos:station:DISL:PPTA:1,2012-05-06T20:00:00Z,30.2791,-87.5561,71.85,1111122 
DISL,ioos:station:DISL:PPTA:1,2012-05-06T20:30:00Z,30.2791,-87.5561,72.0,1111122 
DISL,ioos:station:DISL:PPTA:1,2012-05-06T21:00:00Z,30.2791,-87.5561,70.34,1111122 
DISL,ioos:station:DISL:PPTA:1,2012-05-06T21:30:00Z,30.2791,-87.5561,72.79,1111122 
DISL,ioos:station:DISL:PPTA:1,2012-05-06T22:00:00Z,30.2791,-87.5561,74.03,1111122 
DISL,ioos:station:DISL:PPTA:1,2012-05-06T22:30:00Z,30.2791,-87.5561,76.63,1111122 
DISL,ioos:station:DISL:PPTA:1,2012-05-06T23:00:00Z,30.2791,-87.5561,55.46,1111122 
DISL,ioos:station:DISL:PPTA:1,2012-05-06T23:30:00Z,30.2791,-87.5561,73.48,1111122 
DISL,ioos:station:DISL:PPTA:1,2012-05-07T00:00:00Z,30.2791,-87.5561,74.15,1111122 
DISL,ioos:station:DISL:PPTA:1,2012-05-07T00:30:00Z,30.2791,-87.5561,72.87,1111122 
DISL,ioos:station:DISL:PPTA:1,2012-05-07T01:00:00Z,30.2791,-87.5561,70.0,1111122 
DISL,ioos:station:DISL:PPTA:1,2012-05-07T01:30:00Z,30.2791,-87.5561,72.56,1111122 